DW1087 Weather Reports


Display with metric or nautical units.
time (UTC)temp
F
wind
direction
speed
MPH
gust
MPH
rain 1hr
in
rain 24hr
in
rain mn
in
humidity
%
barometer
mb
20180814111424 55 101 14.0 20.0 0.04 0.04 0.04 84 1016.9
20180814110936 55 113 14.0 22.0 0.04 0.04 0.04 83 1017.1
20180814110507 55 122 16.0 22.0 0.04 0.04 0.04 83 1016.3
20180814105955 55 130 17.0 21.0 0.03 0.03 0.03 83 1016.6
20180814105446 54 132 17.0 20.0 0.03 0.03 0.03 85 1016.7
20180814104938 54 114 14.0 16.0 0.03 0.03 0.03 88 1016.6
20180814104433 54 114 10.0 12.0 0.03 0.03 0.03 88 1017.2
20180814103926 54 71 3.0 10.0 0.03 0.03 0.03 87 1017.4
20180814103438 54 60 6.0 13.0 0.02 0.02 0.02 85 1017.0
20180814103011 56 11 10.0 13.0 0.02 0.02 0.02 81 1016.8
20180814102421 56 61 10.0 13.0 0.01 0.01 0.01 78 1016.9
20180814101934 57 89 9.0 14.0 0.00 0.00 0.00 75 1016.2
20180814101427 57 53 11.0 16.0 0.00 0.00 0.00 73 1016.7
20180814100943 57 68 12.0 16.0 0.00 0.00 0.00 74 1016.4
20180814100454 57 78 12.0 18.0 0.00 0.00 0.00 73 1016.0
20180814095925 57 66 11.0 18.0 0.00 0.00 0.00 73 1016.0
20180814095420 57 78 11.0 18.0 0.00 0.00 0.00 74 1015.9
20180814095009 57 82 12.0 18.0 0.00 0.00 0.00 74 1015.7
20180814094443 57 72 12.0 18.0 0.00 0.00 0.00 76 1015.6
20180814093934 56 78 11.0 18.0 0.00 0.00 0.00 76 1015.6
20180814093445 57 88 11.0 18.0 0.00 0.00 0.00 75 1015.4
20180814093016 57 82 14.0 18.0 0.00 0.00 0.00 75 1015.3
20180814092429 57 78 11.0 21.0 0.00 0.00 0.00 75 1015.4
20180814091924 56 53 10.0 19.0 0.00 0.00 0.00 76 1015.3
20180814091436 56 100 12.0 19.0 0.00 0.00 0.00 76 1015.2
20180814091009 56 74 10.0 21.0 0.00 0.00 0.00 76 1015.0
20180814090438 56 118 9.0 21.0 0.00 0.00 0.00 76 1016.0
20180814085927 56 81 15.0 21.0 0.00 0.00 0.00 77 1016.1
20180814085418 57 78 15.0 26.0 0.00 0.00 0.00 76 1016.3
20180814085011 58 76 18.0 27.0 0.00 0.00 0.00 73 1016.2
20180814084421 58 65 22.0 28.0 0.00 0.00 0.00 70 1016.3
20180814083941 59 69 23.0 29.0 0.00 0.00 0.00 68 1016.3
20180814083435 59 67 23.0 29.0 0.00 0.00 0.00 66 1016.6
20180814082928 60 46 22.0 25.0 0.00 0.00 0.00 66 1016.9
20180814082442 60 53 16.0 19.0 0.00 0.00 0.00 66 1017.0
20180814081933 60 73 13.0 17.0 0.00 0.00 0.00 67 1017.1
20180814081425 60 69 14.0 17.0 0.00 0.00 0.00 67 1017.0
20180814080919 60 74 12.0 18.0 0.00 0.00 0.00 67 1016.9
20180814080452 60 63 13.0 19.0 0.00 0.00 0.00 67 1016.6
20180814080005 60 67 14.0 21.0 0.00 0.00 0.00 66 1016.3
20180814075435 60 65 16.0 21.0 0.00 0.00 0.00 66 1016.3
20180814074947 61 58 14.0 17.0 0.00 0.00 0.00 65 1016.6
20180814074440 62 36 11.0 19.0 0.00 0.00 0.00 63 1016.7
20180814073935 62 64 14.0 18.0 0.00 0.00 0.00 62 1016.5
20180814073428 62 65 12.0 18.0 0.00 0.00 0.00 62 1016.2
20180814072943 62 79 8.0 19.0 0.00 0.00 0.00 62 1016.3
20180814072435 62 82 9.0 28.0 0.00 0.00 0.00 61 1016.1
20180814071928 62 105 22.0 35.0 0.00 0.00 0.00 61 1015.6
20180814071424 62 113 25.0 35.0 0.00 0.00 0.00 61 1015.5
20180814070940 62 136 23.0 35.0 0.00 0.00 0.00 61 1015.4
20180814070453 62 135 27.0 35.0 0.00 0.00 0.00 61 1015.3
20180814065924 62 117 24.0 33.0 0.00 0.00 0.00 60 1015.0
20180814065515 62 131 26.0 33.0 0.00 0.00 0.00 60 1015.2
20180814064946 62 120 27.0 33.0 0.00 0.00 0.00 59 1014.6
20180814064422 62 119 24.0 32.0 0.00 0.00 0.00 59 1014.4
20180814063919 62 109 28.0 34.0 0.00 0.00 0.00 58 1014.4
20180814063432 62 128 28.0 32.0 0.00 0.00 0.00 58 1014.6
20180814063004 62 97 22.0 34.0 0.00 0.00 0.00 57 1014.6
20180814062514 62 82 26.0 36.0 0.00 0.00 0.00 56 1014.1
20180814061943 63 96 26.0 36.0 0.00 0.00 0.00 55 1014.3
20180814061455 63 130 25.0 34.0 0.00 0.00 0.00 55 1014.4
20180814060928 62 139 26.0 34.0 0.00 0.00 0.00 55 1014.5
20180814060419 62 103 22.0 30.0 0.00 0.00 0.00 55 1014.4
20180814055932 63 96 21.0 28.0 0.00 0.00 0.00 54 1014.4
20180814055447 63 82 18.0 25.0 0.00 0.00 0.00 54 1014.7
20180814054937 63 90 15.0 25.0 0.00 0.00 0.00 53 1014.8
20180814054429 63 90 13.0 27.0 0.00 0.00 0.00 53 1014.8
20180814053926 63 64 16.0 27.0 0.00 0.00 0.00 53 1014.7
20180814053419 63 124 19.0 25.0 0.00 0.00 0.00 53 1014.2
20180814053014 64 112 18.0 25.0 0.00 0.00 0.00 53 1014.4
20180814052427 64 86 14.0 20.0 0.00 0.00 0.00 53 1014.8
20180814051920 64 79 13.0 23.0 0.00 0.00 0.00 53 1015.1
20180814051431 64 109 12.0 23.0 0.00 0.00 0.00 53 1015.0
20180814050944 64 78 15.0 20.0 0.00 0.00 0.00 53 1015.0
20180814050437 64 102 15.0 19.0 0.00 0.00 0.00 52 1015.1
20180814045949 65 84 11.0 19.0 0.00 0.00 0.00 52 1015.2
20180814045421 65 83 11.0 18.0 0.00 0.00 0.00 52 1015.2
20180814044937 66 69 11.0 17.0 0.00 0.00 0.00 51 1015.4
20180814044508 66 80 10.0 14.0 0.00 0.00 0.00 50 1015.5
20180814044013 66 80 8.0 14.0 0.00 0.00 0.00 49 1015.7
20180814043426 66 80 8.0 14.0 0.00 0.00 0.00 48 1015.6
20180814042959 66 67 8.0 13.0 0.00 0.00 0.00 48 1015.5
20180814042509 67 81 8.0 13.0 0.00 0.00 0.00 47 1016.5
20180814041921 67 83 7.0 14.0 0.00 0.00 0.00 46 1016.6
20180814041453 67 78 8.0 14.0 0.00 0.00 0.00 45 1016.4
20180814040925 68 77 6.0 13.0 0.00 0.00 0.00 45 1016.5
20180814040436 68 84 9.0 15.0 0.00 0.00 0.00 44 1016.2
20180814035926 68 115 10.0 18.0 0.00 0.00 0.00 44 1016.2
20180814035419 68 107 13.0 18.0 0.00 0.00 0.00 44 1015.9
20180814034932 69 92 12.0 18.0 0.00 0.00 0.00 43 1015.8
20180814034431 69 103 13.0 18.0 0.00 0.00 0.00 42 1015.8
20180814033927 69 84 12.0 16.0 0.00 0.00 0.00 42 1015.9
20180814033458 69 113 12.0 18.0 0.00 0.00 0.00 42 1015.8
20180814032927 69 96 13.0 18.0 0.00 0.00 0.00 42 1015.6
20180814032419 69 84 12.0 18.0 0.00 0.00 0.00 41 1015.4
20180814032011 70 71 10.0 18.0 0.00 0.00 0.00 41 1015.6
20180814031422 70 97 12.0 15.0 0.00 0.00 0.00 41 1015.6
20180814030937 70 90 11.0 19.0 0.00 0.00 0.00 40 1015.5
20180814030428 70 78 10.0 19.0 0.00 0.00 0.00 40 1015.3
20180814030002 70 78 10.0 19.0 0.00 0.00 0.00 40 1015.2
20180814025431 71 88 9.0 19.0 0.00 0.00 0.00 40 1015.1
20180814024924 71 86 10.0 18.0 0.00 0.00 0.00 39 1015.1
20180814024441 71 87 12.0 18.0 0.00 0.00 0.00 39 1015.0
20180814023932 71 59 11.0 20.0 0.00 0.00 0.00 39 1014.7
20180814023426 71 114 14.0 20.0 0.00 0.00 0.00 39 1014.7
20180814022959 72 84 14.0 19.0 0.00 0.00 0.00 39 1014.7
20180814022430 72 97 14.0 19.0 0.00 0.00 0.00 39 1014.8
20180814021946 72 90 12.0 16.0 0.00 0.00 0.00 39 1014.7
20180814021438 72 94 11.0 21.0 0.00 0.00 0.00 38 1014.7
20180814021010 73 115 14.0 21.0 0.00 0.00 0.00 38 1014.4
20180814020420 73 94 14.0 22.0 0.00 0.00 0.00 37 1014.3
20180814015952 74 98 14.0 22.0 0.00 0.00 0.00 38 1014.2
20180814015428 74 50 13.0 16.0 0.00 0.00 0.00 37 1014.1
20180814014940 74 115 10.0 17.0 0.00 0.00 0.00 37 1014.1
20180814014418 75 81 11.0 18.0 0.00 0.00 0.00 37 1013.9
20180814013931 75 94 11.0 18.0 0.00 0.00 0.00 36 1013.9
20180814013424 75 80 11.0 22.0 0.00 0.00 0.00 36 1013.9
20180814012958 76 98 11.0 22.0 0.00 0.00 0.00 35 1013.8
20180814012448 76 94 11.0 17.0 0.00 0.00 0.00 35 1013.7
20180814011919 77 96 11.0 17.0 0.00 0.00 0.00 34 1013.6
20180814011433 77 94 9.0 17.0 0.00 0.00 0.00 33 1013.6
20180814010946 77 108 9.0 17.0 0.00 0.00 0.00 33 1013.6
20180814010439 77 94 13.0 17.0 0.00 0.00 0.00 33 1013.6
20180814005930 77 85 10.0 16.0 0.00 0.00 0.00 32 1013.5
20180814005426 77 77 6.0 15.0 0.00 0.00 0.00 32 1013.6
20180814004919 78 110 7.0 16.0 0.00 0.00 0.00 32 1013.7
20180814004432 78 96 11.0 16.0 0.00 0.00 0.00 32 1013.7
20180814003944 78 83 10.0 18.0 0.00 0.00 0.00 32 1013.6
20180814003515 78 79 12.0 18.0 0.00 0.00 0.00 31 1013.7
20180814002926 79 86 11.0 17.0 0.00 0.00 0.00 31 1013.8
20180814002459 79 95 12.0 16.0 0.00 0.00 0.00 30 1013.7
20180814001931 79 72 5.0 16.0 0.00 0.00 0.00 30 1013.9
20180814001426 80 98 11.0 19.0 0.00 0.00 0.00 30 1014.0
20180814000938 79 73 10.0 19.0 0.00 0.00 0.00 31 1013.9
20180814000430 79 126 14.0 20.0 0.00 0.00 0.00 31 1013.7
20180813235949 79 78 14.0 20.0 0.00 0.00 0.00 31 1013.8
20180813235421 79 79 15.0 20.0 0.00 0.00 0.00 31 1013.8
20180813235014 79 71 15.0 23.0 0.00 0.00 0.00 31 1013.9
20180813234504 79 63 17.0 23.0 0.00 0.00 0.00 31 1014.6
20180813233938 80 62 14.0 22.0 0.00 0.00 0.00 31 1014.6
20180813233450 80 80 17.0 22.0 0.00 0.00 0.00 31 1014.5
20180813232920 80 71 13.0 18.0 0.00 0.00 0.00 30 1014.6
20180813232451 80 88 15.0 20.0 0.00 0.00 0.00 31 1014.5
20180813231922 80 100 14.0 20.0 0.00 0.00 0.00 31 1014.5
20180813231435 80 82 8.0 21.0 0.00 0.00 0.00 31 1014.6
20180813230947 80 66 12.0 21.0 0.00 0.00 0.00 31 1014.2
20180813230439 81 87 14.0 20.0 0.00 0.00 0.00 31 1014.3
20180813230010 80 113 10.0 21.0 0.00 0.00 0.00 31 1014.5
20180813225440 80 82 13.0 21.0 0.00 0.00 0.00 32 1014.1
20180813225011 81 76 12.0 18.0 0.00 0.00 0.00 31 1014.1
20180813224420 81 104 8.0 21.0 0.00 0.00 0.00 31 1014.2
20180813223956 81 82 16.0 21.0 0.00 0.00 0.00 31 1014.0
20180813223447 82 59 12.0 20.0 0.00 0.00 0.00 30 1014.0
20180813222926 82 64 12.0 18.0 0.00 0.00 0.00 31 1014.0
20180813222458 81 140 6.0 22.0 0.00 0.00 0.00 31 1014.2
20180813221931 81 71 11.0 22.0 0.00 0.00 0.00 31 1014.1
20180813221423 83 72 14.0 19.0 0.00 0.00 0.00 30 1014.1
20180813220936 82 74 7.0 24.0 0.00 0.00 0.00 30 1014.3
20180813220447 81 59 13.0 24.0 0.00 0.00 0.00 31 1014.0
20180813215920 81 71 16.0 24.0 0.00 0.00 0.00 32 1014.1
20180813215433 80 74 19.0 23.0 0.00 0.00 0.00 32 1014.0
20180813214928 81 63 12.0 21.0 0.00 0.00 0.00 32 1014.4
20180813214425 80 51 16.0 22.0 0.00 0.00 0.00 32 1014.2
20180813213937 81 71 13.0 23.0 0.00 0.00 0.00 31 1014.3
20180813213430 81 80 12.0 23.0 0.00 0.00 0.00 31 1014.2
20180813213007 81 71 16.0 24.0 0.00 0.00 0.00 31 1014.1
20180813212418 80 68 17.0 24.0 0.00 0.00 0.00 31 1014.2
20180813211930 80 70 17.0 22.0 0.00 0.00 0.00 31 1014.1
20180813211505 80 82 14.0 21.0 0.00 0.00 0.00 32 1014.2
20180813210935 80 71 14.0 19.0 0.00 0.00 0.00 32 1014.3
20180813210510 80 80 13.0 19.0 0.00 0.00 0.00 31 1014.2
20180813205919 81 76 6.0 19.0 0.00 0.00 0.00 31 1014.4
20180813205431 81 72 11.0 20.0 0.00 0.00 0.00 30 1014.3
20180813204943 82 79 12.0 22.0 0.00 0.00 0.00 30 1014.3
20180813204456 81 80 12.0 23.0 0.00 0.00 0.00 30 1014.3
20180813203929 82 63 17.0 20.0 0.00 0.00 0.00 30 1014.2
20180813203423 81 102 8.0 16.0 0.00 0.00 0.00 32 1014.2
20180813202940 80 71 10.0 18.0 0.00 0.00 0.00 32 1014.3
20180813202451 80 71 15.0 18.0 0.00 0.00 0.00 32 1014.2
20180813201921 80 93 9.0 18.0 0.00 0.00 0.00 34 1014.2
20180813201455 79 71 11.0 21.0 0.00 0.00 0.00 34 1014.3
20180813200929 79 80 11.0 24.0 0.00 0.00 0.00 34 1014.2
20180813200420 79 63 19.0 24.0 0.00 0.00 0.00 34 1014.1
20180813195950 79 63 17.0 23.0 0.00 0.00 0.00 34 1014.2
20180813195423 80 70 15.0 23.0 0.00 0.00 0.00 34 1014.1
20180813194919 81 61 11.0 20.0 0.00 0.00 0.00 33 1014.2
20180813194508 80 72 13.0 20.0 0.00 0.00 0.00 34 1014.1
20180813193922 80 65 12.0 19.0 0.00 0.00 0.00 34 1014.3
20180813193416 81 71 13.0 19.0 0.00 0.00 0.00 34 1014.1
20180813192931 80 71 12.0 21.0 0.00 0.00 0.00 36 1015.0
20180813192425 80 63 13.0 22.0 0.00 0.00 0.00 37 1015.0
20180813191958 79 71 17.0 22.0 0.00 0.00 0.00 38 1014.8
20180813191429 79 74 13.0 25.0 0.00 0.00 0.00 38 1014.8
20180813190941 79 79 19.0 25.0 0.00 0.00 0.00 39 1014.7
20180813190431 79 73 12.0 19.0 0.00 0.00 0.00 39 1014.8
20180813190001 79 66 13.0 19.0 0.00 0.00 0.00 38 1014.8
20180813185450 79 74 14.0 19.0 0.00 0.00 0.00 39 1014.8
20180813184919 78 78 8.0 20.0 0.00 0.00 0.00 39 1015.0
20180813184436 79 57 14.0 20.0 0.00 0.00 0.00 39 1014.8
20180813183929 79 59 14.0 20.0 0.00 0.00 0.00 39 1015.0
20180813183446 79 64 13.0 21.0 0.00 0.00 0.00 39 1015.0
20180813182917 79 69 11.0 21.0 0.00 0.00 0.00 40 1015.0
20180813182451 78 71 16.0 22.0 0.00 0.00 0.00 41 1014.8
20180813181922 78 72 18.0 22.0 0.00 0.00 0.00 40 1015.0
20180813181434 79 58 17.0 21.0 0.00 0.00 0.00 38 1014.9
20180813180946 78 74 15.0 20.0 0.00 0.00 0.00 39 1015.0
20180813180456 77 57 13.0 21.0 0.00 0.00 0.00 40 1015.1
20180813175924 77 69 15.0 23.0 0.00 0.00 0.00 41 1015.0
20180813175423 77 56 15.0 23.0 0.00 0.00 0.00 41 1015.1
20180813175011 77 65 17.0 22.0 0.00 0.00 0.00 41 1015.0
20180813174425 77 69 14.0 21.0 0.00 0.00 0.00 43 1015.1
20180813173937 77 63 18.0 22.0 0.00 0.00 0.00 43 1015.1
20180813173429 77 67 18.0 24.0 0.00 0.00 0.00 43 1014.9
20180813172925 76 67 17.0 24.0 0.00 0.00 0.00 46 1014.9
20180813172517 76 26 18.0 25.0 0.00 0.00 0.00 47 1015.0
20180813171947 75 45 20.0 25.0 0.00 0.00 0.00 47 1014.7
20180813171417 75 48 17.0 22.0 0.00 0.00 0.00 48 1014.9
20180813171012 75 51 19.0 25.0 0.00 0.00 0.00 49 1014.9
20180813170424 74 49 17.0 25.0 0.00 0.00 0.00 50 1015.0
20180813165937 74 66 18.0 25.0 0.00 0.00 0.00 50 1014.9
20180813165509 74 39 20.0 26.0 0.00 0.00 0.00 51 1014.9
20180813164938 75 49 20.0 26.0 0.00 0.00 0.00 51 1014.9
20180813164428 74 65 18.0 24.0 0.00 0.00 0.00 52 1014.9
20180813163924 73 30 17.0 26.0 0.00 0.00 0.00 53 1014.8
20180813163437 73 26 19.0 26.0 0.00 0.00 0.00 54 1015.0
20180813162929 73 51 20.0 25.0 0.00 0.00 0.00 54 1014.7
20180813162423 72 43 20.0 25.0 0.00 0.00 0.00 55 1014.7
20180813161935 72 42 19.0 26.0 0.00 0.00 0.00 56 1014.8
20180813161426 72 38 23.0 26.0 0.00 0.00 0.00 56 1014.6
20180813161017 71 38 18.0 24.0 0.00 0.00 0.00 58 1014.4
20180813160425 71 20 21.0 25.0 0.00 0.00 0.00 59 1014.4
20180813155916 71 51 22.0 26.0 0.00 0.00 0.00 59 1014.3
20180813155450 72 30 20.0 26.0 0.00 0.00 0.00 58 1014.3
20180813154929 72 48 22.0 27.0 0.00 0.00 0.00 59 1014.2
20180813154424 72 51 24.0 27.0 0.00 0.00 0.00 59 1014.0
20180813154016 72 47 21.0 27.0 0.00 0.00 0.00 58 1014.2
20180813153425 72 40 23.0 27.0 0.00 0.00 0.00 59 1013.9
20180813152917 72 34 21.0 27.0 0.00 0.00 0.00 59 1014.0
20180813152512 71 57 21.0 28.0 0.00 0.00 0.00 59 1014.0
20180813151921 71 45 24.0 28.0 0.00 0.00 0.00 59 1013.8
20180813151437 71 46 19.0 26.0 0.00 0.00 0.00 59 1013.9
20180813151009 72 40 23.0 26.0 0.00 0.00 0.00 58 1013.8
20180813150418 71 57 18.0 24.0 0.00 0.00 0.00 59 1013.8
20180813145928 71 40 18.0 24.0 0.00 0.00 0.00 59 1013.9
20180813145426 71 56 20.0 23.0 0.00 0.00 0.00 59 1013.8
20180813144938 71 56 15.0 22.0 0.00 0.00 0.00 59 1013.8
20180813144429 71 38 15.0 21.0 0.00 0.00 0.00 59 1013.7
20180813143944 71 47 16.0 21.0 0.00 0.00 0.00 58 1013.8
20180813143435 71 44 15.0 18.0 0.00 0.00 0.00 57 1013.7
20180813142928 71 52 12.0 15.0 0.00 0.00 0.00 57 1013.8
20180813142421 71 78 11.0 15.0 0.00 0.00 0.00 57 1013.7
20180813141952 71 67 14.0 16.0 0.00 0.00 0.00 57 1013.5
20180813141446 71 73 12.0 16.0 0.00 0.00 0.00 56 1013.5
20180813140918 71 68 12.0 17.0 0.00 0.00 0.00 56 1013.5
20180813140434 71 51 13.0 17.0 0.00 0.00 0.00 54 1013.5
20180813135923 71 25 11.0 15.0 0.00 0.00 0.00 53 1013.8
20180813135436 70 59 12.0 15.0 0.00 0.00 0.00 53 1013.5
20180813134928 70 41 12.0 15.0 0.00 0.00 0.00 52 1013.5
20180813134420 70 65 10.0 11.0 0.00 0.00 0.00 51 1013.3
20180813134015 69 68 8.0 11.0 0.00 0.00 0.00 50 1013.2
20180813133424 69 76 6.0 10.0 0.00 0.00 0.00 50 1013.1
20180813132919 69 83 6.0 12.0 0.00 0.00 0.00 50 1013.1
20180813132512 69 75 9.0 14.0 0.00 0.00 0.00 50 1013.3
20180813132429 69 75 9.0 14.0 0.00 0.00 0.00 50 1013.3
20180813131922 68 69 9.0 16.0 0.00 0.00 0.00 49 1013.2
20180813131419 69 53 14.0 16.0 0.00 0.00 0.00 48 1013.2
20180813130934 70 49 11.0 13.0 0.00 0.00 0.00 46 1013.2
20180813130505 71 50 7.0 13.0 0.00 0.00 0.00 44 1013.3
20180813125935 72 21 9.0 11.0 0.00 0.00 0.00 42 1013.8
20180813125450 71 332 6.0 7.0 0.00 0.00 0.00 43 1013.6
20180813124922 71 215 4.0 6.0 0.00 0.00 0.00 43 1013.4
20180813124434 71 215 2.0 6.0 0.00 0.00 0.00 44 1013.3
20180813123929 71 117 5.0 7.0 0.00 0.00 0.00 44 1013.0
20180813123503 71 103 6.0 7.0 0.00 0.00 0.00 44 1012.8
20180813122933 70 254 4.0 8.0 0.00 0.00 0.00 44 1012.6
20180813122445 70 254 5.0 10.0 0.00 0.00 0.00 44 1012.6
20180813122016 70 253 7.0 10.0 0.00 0.00 0.00 43 1012.6
20180813121425 71 229 7.0 9.0 0.00 0.00 0.00 42 1012.6
20180813120922 73 210 5.0 6.0 0.00 0.00 0.00 40 1012.5
20180813120434 73 182 5.0 6.0 0.00 0.00 0.00 39 1012.5
20180813115924 73 148 5.0 6.0 0.00 0.00 0.00 40 1012.7
20180813115516 73 118 4.0 6.0 0.00 0.00 0.00 40 1012.6
20180813114949 72 111 3.0 5.0 0.00 0.00 0.00 41 1012.6
20180813114422 72 111 2.0 5.0 0.00 0.00 0.00 41 1012.6
20180813113935 74 111 3.0 5.0 0.00 0.00 0.00 39 1012.7
20180813113428 74 92 3.0 5.0 0.00 0.00 0.00 38 1012.7
20180813112923 73 92 3.0 5.0 0.00 0.00 0.00 39 1012.6
20180813112416 73 92 3.0 6.0 0.00 0.00 0.00 40 1012.4
20180813111935 73 92 3.0 6.0 0.00 0.00 0.00 40 1012.3